Allentown, PA

8:30 AM EDT on October 24, 2017 (GMT -0400)
Lehigh Valley International

Weather History for KABE - January, 2013

Change the Weather History Date:

Tuesday, January 1, 2013

  Actual Average Record
Temperature  
Mean Temperature 31 °F 28 °F  
Max Temperature 38 °F 37 °F 62 °F (2005)
Min Temperature 24 °F 20 °F -3 °F (1968)
Degree Days  
Heating Degree Days 34 37  
Month to date heating degree days 34 37  
Since 1 July heating degree days 2018 2232  
Cooling Degree Days 0 0  
Month to date cooling degree days 0 0  
Year to date cooling degree days 0 0  
Moisture  
Dew Point 25 °F    
Average Humidity 67    
Maximum Humidity 75    
Minimum Humidity 58    
Precipitation  
Precipitation T in 0.09 in 1.41 in (1945)
Month to date precipitation T 0.09  
Year to date precipitation T 0.09  
Snow  
Snow T in 0.30 in 7.80 in (1971)
Month to date snowfall T 0.3  
Since 1 July snowfall 7.6 6.2  
Snow Depth 1.00 in    
Sea Level Pressure  
Sea Level Pressure 29.94 in    
Wind  
Wind Speed 8 mph (WNW)    
Max Wind Speed 14 mph    
Max Gust Speed 21 mph    
Visibility 10 miles    
Events      
T = Trace of Precipitation, MM = Missing Value Source: NWS Daily Summary

Daily Weather History Graph

Daily Weather History Graph

Search for Another Location

Airport or City:

Trip Planner

Search our weather history database for the weather conditions in past years. The results will help you decide how hot, cold, wet, or windy it might be!

Date:

Astronomy

Jan. 01, 2013 Rise Set
Actual Time 7:25 AM EST 4:45 PM EST
Civil Twilight 6:54 AM EST 5:16 PM EST
Nautical Twilight 6:20 AM EST 5:50 PM EST
Astronomical Twilight 5:47 AM EST 6:23 PM EST
Moon 9:15 PM EST (1/1) 9:35 AM EST (1/1)
Length of Visible Light 10h 21m
Length of Day
9h 19m
Waning Gibbous, 83% of the Moon is Illuminated
Jan 1
Waning Gibbous
Jan 4
Last Quarter
Jan 11
New
Jan 18
First Quarter
Jan 26
Full

Hourly Weather History & Observations

Time (EST) Temp. Windchill Dew Point Humidity Pressure Visibility Wind Dir Wind Speed Gust Speed Precip Events Conditions
12:51 AM 36.0 °F 29.6 °F 27.0 °F 70% 29.91 in 10.0 mi WSW 8.1 mph - N/A   Overcast
1:51 AM 37.0 °F 30.4 °F 28.0 °F 70% 29.90 in 10.0 mi WSW 9.2 mph - N/A   Overcast
2:51 AM 36.0 °F 31.1 °F 28.9 °F 76% 29.92 in 10.0 mi SW 5.8 mph - N/A   Overcast
3:51 AM 37.0 °F 29.8 °F 28.0 °F 70% 29.93 in 10.0 mi WSW 10.4 mph - N/A   Overcast
4:51 AM 37.0 °F 31.6 °F 28.0 °F 70% 29.91 in 10.0 mi WSW 6.9 mph - N/A   Overcast
5:51 AM 37.0 °F 30.4 °F 28.0 °F 70% 29.92 in 10.0 mi WSW 9.2 mph - N/A   Overcast
6:51 AM 37.0 °F 29.8 °F 28.0 °F 70% 29.92 in 10.0 mi WSW 10.4 mph - N/A   Overcast
7:51 AM 37.0 °F 29.8 °F 28.0 °F 70% 29.93 in 10.0 mi WSW 10.4 mph - N/A   Overcast
8:51 AM 37.0 °F 29.8 °F 28.0 °F 70% 29.93 in 10.0 mi WSW 10.4 mph - N/A   Overcast
9:51 AM 37.0 °F 29.8 °F 28.0 °F 70% 29.94 in 10.0 mi WSW 10.4 mph - N/A   Overcast
10:51 AM 37.0 °F 29.8 °F 28.0 °F 70% 29.93 in 10.0 mi WSW 10.4 mph - N/A   Overcast
11:51 AM 37.9 °F 32.1 °F 28.0 °F 68% 29.90 in 10.0 mi West 8.1 mph - N/A   Mostly Cloudy
12:51 PM 37.9 °F 30.9 °F 28.0 °F 68% 29.90 in 10.0 mi West 10.4 mph - N/A   Overcast
1:51 PM 35.1 °F 30.1 °F 28.9 °F 78% 29.87 in 10.0 mi North 5.8 mph - N/A   Overcast
2:51 PM 35.1 °F 28.6 °F 27.0 °F 72% 29.88 in 8.0 mi WNW 8.1 mph - 0.00 in   Overcast
3:51 PM 35.1 °F 32.2 °F 28.0 °F 76% 29.92 in 10.0 mi West 3.5 mph - N/A   Overcast
4:51 PM 34.0 °F 27.2 °F 24.1 °F 67% 29.94 in 10.0 mi NNW 8.1 mph - N/A   Overcast
5:51 PM 33.1 °F 26.9 °F 21.9 °F 64% 29.95 in 10.0 mi NNW 6.9 mph - N/A   Overcast
6:51 PM 32.0 °F 23.6 °F 19.0 °F 59% 29.98 in 10.0 mi NNW 10.4 mph 18.4 mph N/A   Mostly Cloudy
7:51 PM 30.9 °F 22.8 °F 17.1 °F 57% 29.99 in 10.0 mi NNW 9.2 mph - N/A   Clear
8:51 PM 28.9 °F 21.9 °F 17.1 °F 61% 30.00 in 10.0 mi North 6.9 mph - N/A   Clear
9:51 PM 28.0 °F 20.8 °F 17.1 °F 63% 30.02 in 10.0 mi North 6.9 mph - N/A   Clear
10:51 PM 27.0 °F 18.0 °F 16.0 °F 63% 30.03 in 10.0 mi NNW 9.2 mph - N/A   Partly Cloudy
11:51 PM 24.1 °F 18.2 °F 16.0 °F 71% 30.04 in 10.0 mi NNW 4.6 mph - N/A   Clear